STARLINK-34619

Last updated on Sat Aug 02 2025 00:02:05 GMT+0000 (Coordinated Universal Time)

1 64737U 25144P 25213.06282891 .00071185 00000+0 12763-2 0 9994 2 64737 53.1592 127.1979 0001084 89.5797 270.5336 15.49309596 5910

Satellite not in orbit

STARLINK-34619